Weather observations for the past three days for
Williamsburg-Jamestown Airport
Imperial (Metric)
Date Time (edt) Wind (mph) Vis. (mi.) Weather Sky Cond. Temperature (ºF) Relative Humidity Wind Chill (°F) Heat Index (°F) Pressure Precipitation (in)
Air Dwpt 6 hour altimeter (in) sea level (mb) 1 hr 3 hr 6 hr
Max. Min.
05 19:35 SW 8 G 17 9.00 Fair CLR 0 0 0% 29.91 0.0
05 19:15 SW 12 G 21 10.00 Fair CLR 0 0 0% 29.91 0.0
05 18:55 SW 10 G 18 10.00 Fair CLR 0 0 0% 29.9 0.0
05 18:35 S 10 G 21 10.00 Fair CLR 0 0 0% 29.9 0.0
05 18:15 S 15 G 24 10.00 Fair CLR 0 0 0% 29.9 0.0
05 17:55 SW 13 G 24 10.00 Fair CLR 0 0 0% 29.9 0.0
05 17:35 SW 14 G 21 10.00 A Few Clouds FEW350 0 0 0% 29.9 0.0
05 17:15 SW 13 G 21 10.00 Fair CLR 0 0 0% 29.9 0.0
05 16:55 S 13 G 23 10.00 Fair CLR 0 0 0% 29.9 0.0
05 16:35 SW 15 G 23 10.00 Fair CLR 0 0 0% 29.9 0.0
05 16:15 S 15 G 24 10.00 Fair CLR 0 0 0% 29.9 0.0
05 15:55 SW 12 G 23 10.00 Fair CLR 0 0 0% 29.91 0.0
05 15:35 S 15 G 20 10.00 Fair CLR 0 0 0% 29.92 0.0
05 15:15 W 15 G 20 10.00 Fair CLR 0 0 0% 29.93 0.0
05 14:55 SW 15 10.00 Fair CLR 0 0 0% 29.94 0.0
05 14:35 SW 16 G 25 10.00 Fair CLR 0 0 0% 29.94 0.0
05 14:15 S 14 G 23 10.00 Fair CLR 0 0 0% 29.95 0.0
05 13:55 SW 13 G 21 10.00 Fair CLR 0 0 0% 29.95 0.0
05 13:35 S 13 G 25 10.00 Fair CLR 0 0 0% 29.95 0.0
05 13:15 W 12 G 20 10.00 Fair CLR 0 0 0% 29.95 0.0
05 12:55 SW 12 G 17 10.00 Fair CLR 0 0 0% 29.96 0.0
05 12:35 W 10 G 20 10.00 Fair CLR 0 0 0% 29.97 0.0
05 12:15 SW 9 G 16 10.00 Fair CLR 0 0 0% 29.98 0.0
05 11:55 SW 14 G 20 10.00 Fair CLR 0 0 0% 29.99 0.0
05 11:35 Vrbl 7 10.00 Fair CLR 0 0 0% 29.98 0.0
05 11:15 Vrbl 6 10.00 Fair CLR 0 0 0% 29.98 0.0
05 10:55 SW 10 G 17 10.00 Fair CLR 0 0 0% 29.98 0.0
05 10:35 S 8 10.00 Fair CLR 0 0 0% 29.98 0.0
05 10:15 Vrbl 7 10.00 Fair CLR 0 0 0% 29.99 0.0
05 09:55 SW 8 10.00 Fair CLR 0 0 0% 29.99 0.0
05 09:35 Vrbl 6 10.00 Fair CLR 0 0 0% 30 0.0
05 09:15 SW 7 9.00 Fair CLR 0 0 0% 30 0.0
05 08:55 SW 9 10.00 Fair CLR 0 0 0% 30.01 0.0
05 08:35 SW 8 10.00 Fair CLR 0 0 0% 30 0.0
05 08:15 SW 8 9.00 Fair CLR 0 0 0% 29.99 0.0
05 07:55 SW 8 10.00 Fair CLR 0 0 0% 29.99 0.0
05 07:35 SW 7 10.00 Fair CLR 0 0 0% 29.99 0.0
05 07:15 SW 6 G 17 9.00 Fair CLR 0 0 0% 29.99 0.0
05 06:55 SW 5 9.00 Fair CLR 0 0 0% 29.98 0.0
05 06:35 SW 5 10.00 Fair CLR 0 0 0% 29.97 0.0
05 06:15 SW 9 10.00 Fair CLR 0 0 0% 29.97 0.0
05 05:55 SW 9 10.00 Fair CLR 0 0 0% 29.96 0.0
05 05:35 W 9 10.00 Fair CLR 0 0 0% 29.96 0.0
05 05:15 SW 8 10.00 Fair CLR 0 0 0% 29.96 0.0
05 04:55 Vrbl 7 10.00 Fair CLR 0 0 0% 29.95 0.0
05 04:35 Vrbl 7 10.00 Fair CLR 0 0 0% 29.95 0.0
05 04:15 SW 7 10.00 Fair CLR 0 0 0% 29.96 0.0
05 03:55 SW 8 10.00 Fair CLR 0 0 0% 29.95 0.0
05 03:35 SW 7 10.00 Fair CLR 0 0 0% 29.94 0.0
05 03:15 SW 9 10.00 Fair CLR 0 0 0% 29.94 0.0
05 02:55 Vrbl 6 10.00 Fair CLR 0 0 0% 29.94 0.0
05 02:35 SW 8 10.00 Fair CLR 0 0 0% 29.94 0.0
05 02:15 SW 13 G 17 10.00 Fair CLR 0 0 0% 29.94 0.0
05 01:55 SW 8 G 20 10.00 Fair CLR 0 0 0% 29.94 0.0
05 01:35 SW 7 10.00 Fair CLR 0 0 0% 29.95 0.0
05 01:15 SW 8 10.00 Fair CLR 0 0 0% 29.95 0.0
05 00:55 SW 9 G 22 10.00 Fair CLR 0 0 0% 29.94 0.0
05 00:35 SW 9 10.00 Fair CLR 0 0 0% 29.94 0.0
05 00:15 SW 10 G 20 10.00 Fair CLR 0 0 0% 29.94 0.0
04 23:55 S 9 10.00 Fair CLR 0 0 0% 29.94 0.0
04 23:35 S 9 10.00 Fair CLR 0 0 0% 29.94 0.0
04 23:15 S 12 10.00 Fair CLR 0 0 0% 29.94 0.0
04 22:55 S 12 10.00 Fair CLR 0 0 0% 29.93 0.0
04 22:35 S 9 10.00 A Few Clouds FEW110 0 0 0% 29.93 0.0
04 22:15 S 10 10.00 A Few Clouds FEW110 0 0 0% 29.92 0.0
04 21:55 S 6 10.00 Partly Cloudy SCT130 0 0 0% 29.92 0.0
04 21:35 S 6 10.00 Mostly Cloudy BKN130 0 0 0% 29.91 0.0
04 21:15 SW 5 10.00 A Few Clouds FEW130 0 0 0% 29.91 0.0
04 20:55 S 3 10.00 A Few Clouds FEW130 0 0 0% 29.91 0.0
04 20:35 Vrbl 3 10.00 Fair CLR 0 0 0% 29.9 0.0
04 20:15 SW 3 10.00 Fair CLR 0 0 0% 29.89 0.0
04 19:55 SW 6 10.00 Fair CLR 0 0 0% 29.89 0.0
04 19:35 Vrbl 5 10.00 Fair CLR 0 0 0% 29.88 0.0
04 19:15 Vrbl 7 10.00 Fair CLR 0 0 0% 29.88 0.0
04 18:55 SW 8 10.00 Fair CLR 0 0 0% 29.88 0.0
04 18:35 Vrbl 5 10.00 Fair CLR 0 0 0% 29.88 0.0
04 18:15 SW 12 G 21 10.00 Fair CLR 0 0 0% 29.88 0.0
04 17:55 SW 8 G 21 10.00 A Few Clouds FEW090 0 0 0% 29.88 0.0
04 17:35 SW 12 10.00 Fair CLR 0 0 0% 29.88 0.0
04 17:15 SW 8 10.00 Fair CLR 0 0 0% 29.88 0.0
04 16:55 SW 8 10.00 Fair CLR 0 0 0% 29.88 0.0
04 16:35 SW 9 10.00 Fair CLR 0 0 0% 29.88 0.0
04 16:15 SW 8 10.00 NULL NULL 0 0 0% 29.88 0.0
04 15:55 S 8 10.00 Fair CLR 0 0 0% 29.89 0.0
04 15:35 SW 7 10.00 A Few Clouds FEW340 0 0 0% 29.9 0.0
04 15:15 Vrbl 7 10.00 A Few Clouds FEW340 0 0 0% 29.91 0.0
04 14:55 SW 10 10.00 Partly Cloudy FEW250 SCT330 SCT370 0 0 0% 29.93 0.0
04 14:35 SW 13 G 17 10.00 Partly Cloudy FEW260 SCT330 0 0 0% 29.93 0.0
04 14:15 W 10 G 18 10.00 Partly Cloudy FEW280 SCT330 SCT370 0 0 0% 29.94 0.0
04 13:55 Vrbl 5 10.00 A Few Clouds FEW270 0 0 0% 29.94 0.0
04 13:35 W 9 10.00 A Few Clouds FEW370 0 0 0% 29.94 0.0
04 13:15 Vrbl 7 10.00 Fair CLR 0 0 0% 29.95 0.0
04 12:55 W 5 10.00 Fair CLR 0 0 0% 29.96 0.0
04 12:35 Vrbl 3 10.00 Fair CLR 0 0 0% 29.96 0.0
04 12:15 Vrbl 7 10.00 Fair CLR 0 0 0% 29.97 0.0
04 11:55 W 10 10.00 Fair CLR 0 0 0% 29.98 0.0
04 11:35 SW 7 10.00 Fair CLR 0 0 0% 29.99 0.0
04 11:15 W 9 10.00 Fair CLR 0 0 0% 29.99 0.0
04 10:55 SW 8 10.00 Fair CLR 0 0 0% 29.99 0.0
04 10:35 W 10 10.00 Fair CLR 0 0 0% 30 0.0
04 10:15 SW 9 10.00 Fair CLR 0 0 0% 30 0.0
04 09:55 W 9 10.00 Fair CLR 0 0 0% 30 0.0
04 09:35 W 6 10.00 Fair CLR 0 0 0% 30 0.0
04 09:15 W 9 9.00 Fair CLR 0 0 0% 30.01 0.0
04 08:55 W 8 9.00 Fair CLR 0 0 0% 30.01 0.0
04 08:35 W 8 8.00 Fair CLR 0 0 0% 30.01 0.0
04 08:15 W 6 10.00 Fair CLR 0 0 0% 30.01 0.0
04 07:55 Vrbl 7 9.00 A Few Clouds FEW150 0 0 0% 30.01 0.0
04 07:35 Vrbl 3 10.00 Mostly Cloudy FEW120 BKN150 0 0 0% 30.01 0.0
04 07:15 S 5 10.00 Overcast FEW090 OVC120 0 0 0% 30.02 0.0
04 06:55 S 3 10.00 Mostly Cloudy BKN130 0 0 0% 30.02 0.0
04 06:35 S 7 10.00 Overcast OVC120 0 0 0% 30.01 0.0
04 06:15 S 6 10.00 Overcast OVC120 0 0 0% 30.01 0.0
04 05:55 S 8 10.00 Overcast BKN120 OVC140 0 0 0% 30.02 0.0
04 05:35 S 9 10.00 Mostly Cloudy SCT110 BKN140 0 0 0% 30.02 0.0
04 05:15 S 8 10.00 Overcast OVC110 0 0 0% 30.03 0.0
04 04:55 S 7 10.00 Overcast BKN110 OVC130 0 0 0% 30.04 0.0
04 04:35 S 12 10.00 Overcast BKN120 OVC140 0 0 0% 30.04 0.0
04 04:15 S 8 10.00 Overcast OVC120 0 0 0% 30.04 0.0
04 03:55 S 7 10.00 Overcast OVC110 0 0 0% 30.04 0.0
04 03:35 S 7 10.00 Overcast OVC110 0 0 0% 30.04 0.0
04 03:15 S 6 10.00 Overcast OVC110 0 0 0% 30.05 0.0
04 02:55 S 8 10.00 Overcast OVC110 0 0 0% 30.05 0.0
04 02:35 S 8 10.00 Overcast OVC110 0 0 0% 30.04 0.0
04 02:15 S 8 10.00 Mostly Cloudy BKN110 0 0 0% 30.04 0.0
04 01:55 S 8 10.00 Mostly Cloudy BKN120 0 0 0% 30.04 0.0
04 01:35 S 8 10.00 Mostly Cloudy BKN130 0 0 0% 30.04 0.0
04 01:15 S 9 10.00 Partly Cloudy SCT130 0 0 0% 30.04 0.0
04 00:55 S 9 10.00 A Few Clouds FEW130 0 0 0% 30.04 0.0
04 00:35 S 12 10.00 Fair CLR 0 0 0% 30.04 0.0
04 00:15 S 12 10.00 Fair CLR 0 0 0% 30.04 0.0
03 23:55 S 10 10.00 Fair CLR 0 0 0% 30.04 0.0
03 23:35 S 3 10.00 Fair CLR 0 0 0% 30.03 0.0
03 23:15 S 5 10.00 Fair CLR 0 0 0% 30.03 0.0
03 22:55 Calm 10.00 Fair CLR 0 0 0% 30.03 0.0
03 22:35 S 3 10.00 Fair CLR 0 0 0% 30.03 0.0
03 22:15 S 3 10.00 Fair CLR 0 0 0% 30.03 0.0
03 21:55 Calm 10.00 Fair CLR 0 0 0% 30.03 0.0
03 21:35 Calm 10.00 Fair CLR 0 0 0% 30.03 0.0
03 21:15 Calm 10.00 Fair CLR 0 0 0% 30.02 0.0
03 20:55 Calm 10.00 Fair CLR 0 0 0% 30.01 0.0
03 20:35 Calm 10.00 Fair CLR 0 0 0% 30.01 0.0
03 20:15 Calm 10.00 Fair CLR 0 0 0% 30 0.0
03 19:55 Calm 10.00 Fair CLR 0 0 0% 30 0.0
03 19:35 Calm 10.00 Fair CLR 0 0 0% 30 0.0
03 19:15 NW 5 10.00 Fair CLR 0 0 0% 29.99 0.0
03 18:55 NW 7 10.00 Fair CLR 0 0 0% 29.99 0.0
03 18:35 NW 8 10.00 Fair CLR 0 0 0% 30 0.0
03 18:15 NW 9 10.00 Fair CLR 0 0 0% 30 0.0
03 17:55 NW 12 G 18 10.00 Fair CLR 0 0 0% 29.99 0.0
03 17:35 NW 9 10.00 Fair CLR 0 0 0% 29.99 0.0
03 17:15 W 10 10.00 Fair CLR 0 0 0% 29.99 0.0
03 16:55 W 13 10.00 Fair CLR 0 0 0% 29.99 0.0
03 16:35 W 12 10.00 Fair CLR 0 0 0% 29.99 0.0
03 16:15 W 9 10.00 Fair CLR 0 0 0% 29.99 0.0
03 15:55 W 10 10.00 Fair CLR 0 0 0% 30 0.0
03 15:35 W 12 G 17 10.00 Fair CLR 0 0 0% 30.01 0.0
03 14:55 W 9 G 20 10.00 Fair CLR 0 0 0% 30.02 0.0
03 14:35 W 13 G 18 10.00 Fair CLR 0 0 0% 30.03 0.0
03 14:15 NW 10 G 18 10.00 Fair CLR 0 0 0% 30.03 0.0
03 13:55 NW 10 10.00 Fair CLR 0 0 0% 30.03 0.0
03 13:35 W 9 G 21 10.00 Fair CLR 0 0 0% 30.04 0.0
03 13:15 W 7 G 18 10.00 Fair CLR 0 0 0% 30.04 0.0
03 12:55 NW 14 G 17 10.00 Fair CLR 0 0 0% 30.05 0.0
03 12:35 NW 9 10.00 Fair CLR 0 0 0% 30.05 0.0
03 12:15 NW 14 G 23 10.00 Fair CLR 0 0 0% 30.06 0.0
03 11:55 N 16 G 22 10.00 Fair CLR 0 0 0% 30.06 0.0
03 11:35 N 10 G 20 10.00 Fair CLR 0 0 0% 30.06 0.0
03 11:15 NW 12 G 21 10.00 Fair CLR 0 0 0% 30.06 0.0
03 10:55 N 14 G 23 10.00 A Few Clouds FEW060 0 0 0% 30.06 0.0
03 10:35 NW 13 G 18 10.00 A Few Clouds FEW060 0 0 0% 30.06 0.0
03 10:15 NW 12 10.00 Fair CLR 0 0 0% 30.06 0.0
03 09:55 NW 12 G 22 10.00 Fair CLR 0 0 0% 30.06 0.0
03 09:35 NW 15 10.00 Fair CLR 0 0 0% 30.05 0.0
03 09:15 N 14 G 21 10.00 Fair CLR 0 0 0% 30.05 0.0
03 08:55 N 10 G 17 10.00 Fair CLR 0 0 0% 30.05 0.0
03 08:35 N 10 G 22 9.00 Fair CLR 0 0 0% 30.05 0.0
03 08:15 N 9 G 17 10.00 Fair CLR 0 0 0% 30.04 0.0
03 07:55 N 12 10.00 Fair CLR 0 0 0% 30.03 0.0
03 07:35 N 10 G 16 10.00 Fair CLR 0 0 0% 30.03 0.0
03 07:15 N 10 10.00 A Few Clouds FEW090 0 0 0% 30.03 0.0
03 06:55 N 9 10.00 Overcast SCT075 OVC090 0 0 0% 30.01 0.0
03 06:35 N 10 10.00 Mostly Cloudy BKN070 BKN090 0 0 0% 30 0.0
03 06:15 NW 8 10.00 Mostly Cloudy BKN070 0 0 0% 29.99 0.0
03 05:55 N 7 G 17 10.00 Overcast OVC070 0 0 0% 29.97 0.0
03 05:35 N 9 10.00 Overcast BKN070 OVC095 0 0 0% 29.96 0.0
03 05:15 N 9 10.00 Mostly Cloudy SCT075 BKN095 0 0 0% 29.96 0.0
03 04:55 N 9 10.00 Overcast BKN075 OVC095 0 0 0% 29.95 0.0
03 04:35 N 9 10.00 Overcast BKN080 OVC100 0 0 0% 29.95 0.0
03 04:15 N 5 10.00 Mostly Cloudy BKN090 0 0 0% 29.94 0.0
03 03:55 N 7 10.00 Overcast OVC085 0 0 0% 29.93 0.0
03 03:35 N 8 10.00 Overcast OVC085 0 0 0% 29.93 0.0
03 03:15 N 7 10.00 Mostly Cloudy BKN080 BKN100 0 0 0% 29.92 0.0
03 02:55 N 6 10.00 Overcast OVC070 0 0 0% 29.91 0.0
03 02:35 N 7 10.00 Overcast OVC075 0 0 0% 29.91 0.0
03 02:15 N 6 10.00 Mostly Cloudy BKN075 0 0 0% 29.9 0.0
03 01:55 N 6 10.00 Mostly Cloudy BKN080 0 0 0% 29.91 0.0
03 01:35 NW 5 10.00 Overcast OVC080 0 0 0% 29.9 0.0
03 01:15 N 5 10.00 Overcast BKN080 OVC100 0 0 0% 29.9 0.0
03 00:55 NW 5 10.00 Mostly Cloudy BKN075 0 0 0% 29.91 0.0
03 00:35 NW 5 10.00 Overcast OVC080 0 0 0% 29.91 0.0
03 00:15 Calm 10.00 Overcast OVC080 0 0 0% 29.91 0.0
02 23:55 NW 3 10.00 Mostly Cloudy SCT080 SCT095 BKN150 0 0 0% 29.91 0.0
02 23:35 Calm 10.00 Mostly Cloudy SCT090 BKN150 0 0 0% 29.91 0.0
02 23:15 Calm 10.00 Overcast SCT090 OVC150 0 0 0% 29.91 0.0
02 22:55 Calm 10.00 Mostly Cloudy BKN150 0 0 0% 29.91 0.0
02 22:35 Calm 10.00 Mostly Cloudy BKN140 0 0 0% 29.91 0.0
02 22:15 Calm 10.00 Overcast OVC130 0 0 0% 29.9 0.0
02 21:55 Calm 10.00 Overcast OVC140 0 0 0% 29.9 0.0
02 21:35 Calm 10.00 Mostly Cloudy BKN140 BKN160 0 0 0% 29.9 0.0
02 21:15 Calm 10.00 Mostly Cloudy BKN130 0 0 0% 29.9 0.0
02 20:55 Calm 10.00 Overcast OVC120 0 0 0% 29.89 0.0
02 20:35 Calm 10.00 Overcast OVC130 0 0 0% 29.88 0.0
02 20:15 Calm 10.00 Mostly Cloudy BKN130 0 0 0% 29.88 0.0
02 19:55 Calm 10.00 Overcast SCT085 OVC130 0 0 0% 29.87 0.0
Date Time (edt) Wind (mph) Vis. (mi.) Weather Sky Cond. Air Dwpt Max. Min. Relative Humidity Wind Chill (°F) Heat Index (°F) altimeter (in) sea level (mb) 1 hr 3 hr 6 hr
6 hour
Temperature (ºF) Pressure Precipitation (in)